www.pogodaiklimat.ru

Погода и климат >> Архив погоды >> Мексика >> Campeche


ПОГОДА в Campeche

  • Прогноз погоды в Campeche
  • Монитор погоды в Campeche
  • Климат города

АРХИВ ПОГОДЫ в Campeche

Время (UTC), дата Ветер
(напр.,м/с)
 
Видим.   Явления Облачность Т
(С)
Тd
(С)
f
(%)
Тe
(С)
Тes
(С)
Комфортность P
(гПа)
Po
(гПа)
Тmin
(С)
Tmax
(С)
R
(мм)
R24
(мм)
S
(см)
09 11.10 В 1 6000 м зарница 4/4 180 м
[Sc diur, vesp]
+26.0 +24.6 92 +37 +37 очень
душно
1010.7 1010.1
12 11.10 штиль 0 10 км 5/3 210 м
[Cu med, cong Cs]
+25.3 +24.6 96 +36 +36 очень
душно
1011.6 1011.0 +25.2 +35.8
15 11.10 В 1 10 км 5/1 500 м
[Cu hum Cs]
+30.8 +27.1 81 +49 +56 опасность
перегрева
1012.7 1012.2
18 11.10 СЗ 2 10 км 6/4 570 м
[Cu med, cong Ci fib]
+31.0 +28.7 88 +53 +63 опасность
перегрева
1012.1 1011.5 +25.2 +32.1
21 11.10 СЗ 2 10 км 4/0
[Ci]
+32.1 +28.6 82 +54 +62 опасность
перегрева
1010.1 1009.5
00 12.10 С 4 8000 м слабый дождь 9/9 600 м
[Cu med, cong]
+28.3 +25.5 85 +42 +42 опасность
перегрева
1010.6 1010.0 0.0
03 12.10 В 1 6000 м {морось} 6/3 540 м
[Sc As op]
+26.7 +25.5 93 +39 +39 очень
душно
1012.0 1011.5 0.3
06 12.10 СВ 2 6000 м 1/0
[Ac trans]
+26.2 +25.1 94 +38 +38 очень
душно
1011.9 1011.3 0.3
09 12.10 СВ 1 6000 м 4/4 180 м
[St]
+25.4 +24.6 95 +36 +36 очень
душно
1011.1 1010.5
12 12.10 ЮВ 1 10 км 10/10 120 м
[St]
+25.0 +24.2 95 +34 +34 очень
душно
1012.3 1011.7 +24.6 +32.4
15 12.10 СВ 2 10 км 8/0
[Ac und Cs]
+28.0 +25.3 85 +41 +46 опасность
перегрева
1011.8 1011.2
18 12.10 ЮВ 1 10 км 6/6 570 м
[Cu med, cong]
+32.2 +27.8 78 +52 +60 опасность
перегрева
1011.2 1010.7 +24.6 +32.4
21 12.10 З 2 10 км 5/1 840 м
[Cu med, cong Ac cuf]
+28.6 +27.0 91 +45 +50 опасность
перегрева
1008.9 1008.3 2
00 13.10 З 1 8000 м {дождь} 5/4 600 м
[Cu med, cong Cs]
+28.6 +27.0 91 +45 +45 опасность
перегрева
1008.9 1008.3 2
03 13.10 Ю 1 500 м сильная гроза, ливневой дождь {морось} 10/6 540 м
[Cb calv As op]
+25.8 +25.3 97 +37 +37 очень
душно
1011.5 1010.9 47
06 13.10 СВ 1 6000 м {гроза} 5/1 300 м
[Frnb Ac As]
+25.5 +25.0 97 +36 +36 очень
душно
1011.1 1010.5 96
09 13.10 СВ 1 6000 м 10/10 150 м
[Sc]
+25.8 +25.0 95 +37 +37 очень
душно
1009.8 1009.2
12 13.10 СВ 1 10 км 10/10 150 м
[Sc]
+25.4 +24.9 97 +36 +36 очень
душно
1010.4 1009.8 +25.0 +32.4
15 13.10 В 2 10 км 10/10 180 м
[Sc]
+27.6 +26.0 91 +41 +41 опасность
перегрева
1011.5 1010.9
18 13.10 СЗ 2 10 км 5/5 480 м
[Cu med, cong]
+31.1 +28.7 87 +53 +62 опасность
перегрева
1010.1 1009.6 +25.0 +31.5
21 13.10 З 2 10 км 3/3 420 м
[Cb cap]
+31.1 +28.9 88 +54 +59 опасность
перегрева
1008.2 1007.6
12 14.10 В 1 10 км 8/0
[Ac und]
+24.4 +23.9 97 +33 +33 очень
душно
1010.6 1010.0 +24.0 +31.6
15 14.10 ЮВ 1 10 км 1/1 240 м
[Cu hum]
+28.4 +26.5 89 +43 +52 опасность
перегрева
1012.1 1011.5
00 15.10 В 1 8000 м 3/3 600 м
[Cu med, cong]
+30.2 +28.3 90 +51 +51 опасность
перегрева
1008.9 1008.4 +24.0 +34.8
03 15.10 В 1 6000 м ясно +27.3 +25.7 91 +40 +40 очень
душно
1011.4 1010.9
06 15.10 В 1 6000 м ясно +25.8 +25.0 95 +37 +37 очень
душно
1011.6 1011.0 +24.0 +34.8
12 15.10 В 2 10 км ясно +24.9 +24.2 96 +34 +34 очень
душно
1011.7 1011.2 +24.6 +34.8
15 15.10 В 2 10 км 3/3 400 м
[Cu hum]
+29.0 +26.3 85 +44 +49 опасность
перегрева
1013.2 1012.7
18 15.10 В 3 10 км 3/3 840 м
[]
+33.1 +27.8 74 +53 +63 опасность
перегрева
1011.2 1010.7 +22.6 +32.2
21 15.10 В 2 10 км 1/1 870 м
[Cu hum]
+34.3 +29.2 75 +59 +66 опасность
перегрева
1009.1 1008.5
00 16.10 ЮВ 1 6000 м в посл. час гроза 6/3 600 м
[Cb calv Ac As]
+26.3 +25.8 97 +39 +39 очень
душно
1010.3 1009.7 5
03 16.10 В 1 6000 м ясно +25.3 +24.8 97 +36 +36 очень
душно
1011.7 1011.2
12 16.10 С 1 10 км 5/5 120 м
[St]
+24.6 +24.1 97 +34 +34 очень
душно
1011.4 1010.8 +24.0 +34.3
15 16.10 СВ 2 10 км 8/8 270 м
[Cu med, cong]
+28.0 +25.9 88 +42 +43 опасность
перегрева
1012.5 1012.0
18 16.10 ЮВ 2 10 км 8/1 870 м
[Cu med, cong Cs]
+31.9 +28.1 80 +52 +65 опасность
перегрева
1011.1 1010.5 +24.0 +31.9
21 16.10 ЮВ 1 10 км 10/0
[As op]
+28.8 +27.2 91 +46 +48 опасность
перегрева
1009.2 1008.6 1
00 17.10 В 2 8000 м в посл. час гроза 10/4 600 м
[Cu med, cong As op]
+26.6 +25.4 93 +39 +39 очень
душно
1010.4 1009.9 2
03 17.10 В 3 6000 м 4/0
[As trans]
+26.1 +24.7 92 +37 +37 очень
душно
1011.9 1011.3
06 17.10 В 2 6000 м ясно +25.0 +24.7 98 +35 +35 очень
душно
1011.5 1010.9 +24.0 +32.3
09 17.10 В 1 6000 м 9/9 180 м
[St]
+24.4 +23.9 97 +33 +33 очень
душно
1011.0 1010.4
12 17.10 В 2 10 км 5/0
[Cs]
+24.6 +23.8 95 +33 +33 очень
душно
1012.1 1011.6 +24.4 +32.3
15 17.10 В 2 10 км 4/4 270 м
[Cu hum]
+28.2 +26.1 88 +42 +47 опасность
перегрева
1013.6 1013.0
18 17.10 СВ 3 10 км 6/4 540 м
[Cu med, cong Ci fib]
+32.3 +29.0 83 +56 +63 опасность
перегрева
1012.2 1011.6 +24.4 +32.3
21 17.10 В 2 10 км 6/6 400 м
[Cu med, cong]
+33.7 +29.5 79 +59 +62 опасность
перегрева
1009.5 1009.0
00 18.10 В 1 8000 м {дождь} 8/4 600 м
[Cu med, cong As op]
+27.5 +26.4 94 +42 +42 опасность
перегрева
1011.3 1010.8 1
03 18.10 В 3 6000 м ясно +26.3 +24.7 91 +37 +37 очень
душно
1013.1 1012.6
06 18.10 В 2 6000 м ясно +25.4 +24.3 94 +35 +35 очень
душно
1013.8 1013.3 +24.4 +33.7

 

Местоположение метеостанции Campeche (Мексика): широта 19.85 долгота -90.55 высота над уровнем моря 5 м.

В архиве по умолчанию представлена погода в Campeche за последнюю неделю. Архивные данные за месяц целиком и за предыдущие месяцы, начиная с января 2011 года, Вы можете получить, выбрав интересующий диапазон дат из раскрывающегося списка и нажав кнопку "Ввод!".


*Определитесь, кто Вы:
робот инопланетянин человек

Внимание! Время в таблицах - всемирное. Для получения местного времени необходимо прибавить поправку, которая в Campeche равна -6 ч.

Смотрите также архив погоды в соседних городах и на ближайших метеорологических станциях:

Погода в Merida 2 (Мексика) (156 км)
Погода в Merida (Мексика) (157 км)
Погода в Progreso (Мексика) (187 км)
Погода в Valladolid (Мексика) (262 км)
Погода в Felipe Carrillo Puerto (Мексика) (278 км)
Погода в Chetumal (Мексика) (281 км)
Погода в Villahermosa (Мексика) (326 км)
Погода в Flores (Гватемала) (333 км)
Погода в Belize (Белиз) (350 км)
Погода в Sn. Cristobal Las Casas (Мексика) (409 км)

Пояснения к столбцам:

Ветер - указаны скорость ветра в м/с - средняя за 10 мин, порывы в срок и между сроками (в фигурных скобках) и направление, откуда дует ветер: С - северный, СВ - северо-восточный, В - восточный, ЮВ - юго-восточный, Ю - южный, ЮЗ - юго-западный, З - западный, СЗ - северо-западный.
Видимость - горизонтальная дальность видимости в метрах или километрах. При видимости от 1 до 10 км при отсутствии осадков обычно наблюдается дымка, при ухудшении видимости до 1 км и менее - туман. В сухую погоду видимость может ухудшаться дымом, пылью или мглою.
Явления - указаны атмосферные явления, наблюдавшиеся в срок или в последний час перед сроком; фигурными скобками обозначены явления, наблюдавшиеся между сроками (за 1-3 часа до срока); квадратными скобками обозначены град или гололедные отложения с указанием их диаметра в мм.
Облачность - указаны через наклонную черту общая и нижняя облачность в баллах и высота нижней границы облаков в метрах; квадратными скобками обозначены формы облаков: Ci - перистые, Cs - перисто-слоистые, Cc - перисто-кучевые, Ac - высококучевые, As - высокослоистые, Sc - слоисто-кучевые, Ns - слоисто-дождевые, Cu - кучевые, Cb - кучево-дождевые. Подробнее классификацию облаков см. в Атласе облаков (PDF).
T - Температура воздуха - температура, измеренная на высоте 2 м над землей.
Td - Температура точки росы - температура, при понижении до которой содержащийся в воздухе водяной пар достигнет насыщения.
f - Относительная влажность воздуха - влажноcть воздуха, измеренная на высоте 2 м над землей.
Te - Эффективная температура - температура, которую ощущает одетый по сезону человек в тени. Характеристика душности погоды. При расчете учитывается влияние влажности воздуха и скорости ветра на теплоощущения человека.
Tes - Эффективная температура на солнце - температура, которую ощущает человек, с поправкой на солнечный нагрев. Характеристика знойности погоды. Зависит от высоты солнца над горизонтом, облачности и скорости ветра. Ночью, в пасмурную погоду, а также при ветре 12 м/с и более поправка равна нулю.
P - Атмосферное давление - приведенное к уровню моря атмосферное давление.
Po - Атмосферное давление - измеренное на уровне метеостанции атмосферное давление.
Tmin - Минимальная температура - минимум температуры воздуха на высоте 2 м над землей.
Tmax - Максимальная температура - максимум температуры воздуха на высоте 2 м над землей.
R - Количество осадков - Количество выпавших осадков за период времени, мм. При наведении курсора мыши на число - период времени, за который выпало указанное количество осадков.
R24 - Количество осадков - Количество выпавших осадков за 24 часа, мм.
S - Снежный покров - Высота снежного покрова, см. При наведении курсора мыши на число - состояние снежного покрова и степень покрытия местности в баллах.